Location: Unspecified
(35.6961°N, 0.0000°E)
Time: 13:30:49
(UTC+00:00)

Explorer 11/Cluster Stage 4 - Pass Details

Date: 24 May 2019
Orbit: 467 x 1260 km, 28.8° (Epoch: 24 June)

Event Time Altitude Azimuth Distance (km) Brightness Sun altitude
Rises 07:02:23 0° 259° (W) 2,649 8.7 24.9°
Reaches altitude 10° 07:05:23 10° 237° (WSW) 1,675 7.9 25.5°
Maximum altitude 07:07:43 16° 198° (SSW) 1,314 7.6 26.0°
Drops below altitude 10° 07:09:59 10° 159° (SSE) 1,607 8.4 26.4°
Sets 07:12:45 0° 136° (SE) 2,483 9.7 27.0°
